Simultaneous Nadir Overpasses (SNOs) Predictions

Prediction of SNOs between LANDSAT-8 and METOP-B Satellite Orbit:

Table of predicted SNOs for the next 14.0 days since TLE Epoch: 2/20/2016
Index Date (LANDSAT-8) Time (LANDSAT-8) Lat,Lon (LANDSAT-8) SZA (LANDSAT-8 ) Date (METOP-B) Time (METOP-B) Lat,Lon (METOP-B) SZA (METOP-B ) Distance(km) Time Diff (sec)
1 02/21/2016 11:50:50 -81.20,-136.96 86.42 02/21/2016 11:49:43 -81.19,-137.08 86.46 2.19 67
2 02/21/2016 12:40:16 81.20, 30.81 93.59 02/21/2016 12:40:22 81.21, 30.99 93.62 3.23 6
3 02/24/2016 07:25:06 -81.18, -70.73 87.46 02/24/2016 07:24:03 -81.19, -70.57 87.47 2.93 63
4 02/24/2016 08:14:31 81.21, 97.37 92.59 02/24/2016 08:14:42 81.21, 97.48 92.61 1.80 11
5 02/27/2016 02:59:21 -81.19, -4.24 88.49 02/27/2016 02:58:23 -81.19, -4.09 88.49 2.60 58
6
